EW7554 Weather Reports


Display with metric or nautical units.
time (UTC)temp
F
wind
direction
speed
MPH
gust
MPH
rain 1hr
in
rain 24hr
in
rain mn
in
humidity
%
barometer
mb
20200329174602 40 325 13.0 24.0 0.00 0.95 0.20 85 1007.6
20200329173043 40 327 12.0 20.0 0.00 0.95 0.20 87 1007.2
20200329171550 39 313 11.0 23.0 0.00 0.95 0.20 88 1006.8
20200329170114 39 344 10.0 20.0 0.00 0.95 0.20 89 1006.8
20200329164524 38 346 12.0 21.0 0.00 0.95 0.20 89 1006.5
20200329163021 39 332 9.0 21.0 0.00 0.95 0.20 88 1006.3
20200329161556 39 333 13.0 23.0 0.00 0.95 0.20 88 1005.8
20200329160018 38 9 12.0 19.0 0.00 0.95 0.20 89 1005.4
20200329154523 38 319 12.0 22.0 0.00 0.95 0.20 91 1005.0
20200329153016 37 319 13.0 22.0 0.00 0.95 0.20 92 1004.6
20200329151511 36 323 9.0 18.0 0.00 0.95 0.20 93 1004.3
20200329150001 36 14 10.0 18.0 0.01 0.95 0.20 93 1004.0
20200329144905 36 299 10.0 20.0 0.01 0.95 0.20 94 1003.7
20200329143200 35 346 8.0 16.0 0.02 0.95 0.20 94 1003.4
20200329141743 35 319 11.0 21.0 0.02 0.95 0.20 94 1003.0
20200329140210 35 355 10.0 18.0 0.01 0.94 0.19 94 1002.8
20200329134622 34 324 11.0 20.0 0.01 0.94 0.19 94 1002.4
20200329133051 34 5 10.0 20.0 0.00 0.93 0.18 94 1001.9
20200329131712 34 309 9.0 18.0 0.01 0.93 0.18 94 1001.6
20200329130055 34 306 10.0 19.0 0.02 0.93 0.18 94 1001.3
20200329124641 34 318 8.0 18.0 0.02 0.93 0.18 94 1000.9
20200329123125 34 355 9.0 22.0 0.02 0.93 0.18 95 1000.5
20200329121540 34 304 9.0 18.0 0.02 0.92 0.17 95 1000.0
20200329120129 34 284 9.0 19.0 0.02 0.91 0.16 95 999.6
20200329114530 34 348 13.0 18.0 0.02 0.91 0.16 95 999.3
20200329113038 34 355 13.0 21.0 0.02 0.90 0.15 95 998.9
20200329111550 34 347 10.0 18.0 0.03 0.90 0.15 95 998.3
20200329110023 33 351 9.0 18.0 0.02 0.89 0.14 95 998.1
20200329104522 33 323 7.0 18.0 0.02 0.89 0.14 95 997.8
20200329103113 33 320 8.0 22.0 0.02 0.88 0.13 95 997.4
20200329101536 33 344 8.0 15.0 0.01 0.87 0.12 95 996.9
20200329100038 33 319 10.0 16.0 0.01 0.87 0.12 95 996.6
20200329094520 32 347 8.0 15.0 0.00 0.86 0.11 94 996.4
20200329093011 32 338 8.0 18.0 0.00 0.86 0.11 94 996.0
20200329091530 33 346 12.0 22.0 0.01 0.86 0.11 94 995.8
20200329090013 33 288 8.0 19.0 0.01 0.86 0.11 94 995.6
20200329083106 33 338 8.0 17.0 0.02 0.86 0.11 94 995.3
20200329081708 33 17 9.0 19.0 0.02 0.85 0.10 94 995.2
20200329074637 33 321 9.0 19.0 0.04 0.84 0.09 94 995.2
20200329073137 34 351 9.0 17.0 0.05 0.84 0.09 94 995.2
20200329071600 34 327 8.0 17.0 0.06 0.83 0.08 93 995.2
20200329070113 35 355 9.0 20.0 0.05 0.81 0.06 94 995.3
20200329064547 36 360 8.0 18.0 0.04 0.80 0.05 93 995.3
20200329063111 37 349 6.0 18.0 0.04 0.79 0.04 93 995.4
20200329061547 39 348 6.0 14.0 0.02 0.77 0.02 94 995.4
20200329060122 39 350 5.0 16.0 0.01 0.76 0.01 94 995.3
20200329054612 39 340 9.0 17.0 0.01 0.76 0.01 94 995.2
20200329053110 39 23 7.0 22.0 0.00 0.75 0.00 93 995.2
20200329051535 38 32 8.0 16.0 0.00 0.75 0.00 94 995.3
20200329050112 38 5 6.0 19.0 0.00 0.76 0.75 94 995.3
20200329044523 38 347 8.0 22.0 0.01 0.76 0.75 94 995.7
20200329043038 38 32 9.0 18.0 0.02 0.76 0.75 94 995.7
20200329041627 38 360 5.0 17.0 0.02 0.76 0.75 93 995.8
20200329040014 38 17 9.0 20.0 0.02 0.76 0.75 93 995.8
20200329034519 38 31 9.0 21.0 0.01 0.75 0.74 93 995.6
20200329033036 38 22 8.0 18.0 0.00 0.74 0.73 93 996.2
20200329031534 38 311 13.0 22.0 0.00 0.74 0.73 93 996.5
20200329030007 38 5 5.0 17.0 0.00 0.76 0.73 93 996.7
20200329024503 39 27 12.0 18.0 0.00 0.76 0.73 92 997.0
20200329023002 39 40 11.0 18.0 0.00 0.76 0.73 93 997.0
20200329021602 39 36 11.0 22.0 0.01 0.76 0.73 93 997.4
20200329020228 39 360 9.0 23.0 0.02 0.76 0.73 94 997.8
20200329014627 39 9 8.0 20.0 0.05 0.76 0.73 94 998.0
20200329013150 39 355 8.0 20.0 0.09 0.76 0.73 94 998.3
20200329011647 40 28 7.0 16.0 0.13 0.75 0.72 93 998.6
20200329010155 40 36 6.0 15.0 0.16 0.74 0.71 93 999.2
20200329004616 40 24 7.0 16.0 0.15 0.71 0.68 93 999.6
20200329003108 41 20 5.0 15.0 0.12 0.66 0.63 93 999.8
20200329001643 41 327 8.0 18.0 0.12 0.62 0.59 93 999.2
20200329000109 41 19 5.0 13.0 0.12 0.57 0.55 93 999.8
20200328234615 42 24 7.0 19.0 0.17 0.56 0.53 93 999.0
20200328233104 42 341 10.0 23.0 0.17 0.53 0.50 93 999.0
20200328231557 42 42 10.0 20.0 0.16 0.50 0.47 93 998.8
20200328230119 42 35 6.0 16.0 0.17 0.46 0.43 93 999.1
20200328224553 43 360 8.0 18.0 0.12 0.39 0.36 93 1000.6
20200328223045 43 12 7.0 22.0 0.10 0.36 0.33 92 998.8
20200328221609 43 53 11.0 24.0 0.08 0.34 0.31 92 999.5
20200328220030 43 38 16.0 25.0 0.03 0.28 0.26 92 998.9
20200328214613 43 355 13.0 25.0 0.02 0.27 0.24 92 999.6
20200328213020 43 9 14.0 26.0 0.05 0.26 0.23 92 1000.3
20200328211516 43 57 11.0 24.0 0.12 0.26 0.23 93 1000.5
20200328210010 43 346 12.0 25.0 0.17 0.26 0.23 93 1001.8
20200328204508 44 16 11.0 22.0 0.20 0.25 0.22 93 1002.2
20200328203008 44 5 9.0 19.0 0.17 0.21 0.18 93 1003.0
20200328201501 44 5 8.0 16.0 0.09 0.13 0.10 92 1003.5
20200328200107 44 36 9.0 17.0 0.05 0.09 0.06 92 1004.5
20200328194555 45 5 7.0 16.0 0.02 0.05 0.02 91 1004.7
20200328193141 45 5 6.0 14.0 0.01 0.04 0.01 91 1005.0
20200328191621 45 49 7.0 18.0 0.01 0.04 0.01 91 1005.2
20200328190207 45 14 4.0 10.0 0.01 0.04 0.01 91 1005.9
20200328184625 45 65 7.0 14.0 0.00 0.03 0.00 90 1005.8
20200328183124 45 13 6.0 11.0 0.00 0.03 0.00 89 1005.9
20200328181604 46 46 9.0 17.0 0.00 0.03 0.00 88 1005.9
20200328180049 46 26 5.0 12.0 0.00 0.03 0.00 88 1006.0